Location: Kuffner-Sternwarte
(48.2130°N, 16.2960°E)
Time: 16:07:51
(UTC+02:00)

COROT - Pass Details

Date: 08 May 2026
Orbit: 594 x 855 km, 90.1° (Epoch: 21 May)

Event Time Altitude Azimuth Distance (km) Brightness Sun altitude
Rises 22:22:08 0° 17° (NNE) 3,403 9.9 -16.6°
Reaches altitude 10° 22:26:10 10° 46° (NE) 2,422 8.7 -17.0°
Maximum altitude 22:28:27 13° 71° (ENE) 2,211 8.2 -17.2°
Enters shadow 22:30:05 11° 90° (E) 2,285 8.1 -17.3°
